sat.trackr.live / text

‹ back to catalog

STARLINK-35086

NORAD 65699 · 2025-212Z

PAYLOAD ACTIVE UNKNOWN

§ Identity

Operator
Country
US
Launch date
2025-09-21
Launch site
AFETR
Launch vehicle
Mass (kg)
RCS (m²)

Purposes: comms

External: N2YO · Heavens-Above · Gunter

§ Orbital elements

Epoch: 2026-09-20T05:57:58.343616Z

Period
94.01 min
Inclination
53.1594°
Eccentricity
0.0001114
Mean motion
15.31722655 rev/d
Perigee alt
469.9 km
Apogee alt
471.4 km
Semi-major
6,848.8 km
B*
5.3039e-4
RAAN
161.0993°
Arg perigee
81.4726°
Mean anomaly
278.6402°
Rev number
5,699

§ Raw data

STARLINK-350861 65699U 25212Z   26263.24859194  .00016141  00000+0  53039-3 0  99932 65699  53.1594 161.0993 0001114  81.4726 278.6402 15.31722655 56993

JSON: /api/v1/satellites/65699 · /tle

For live sub-satellite position, see the globe view (requires WebGL).

§ Visibility from observer

Set your observer location to see the next 7 days of passes ≥ 10°. The values pass through the URL so the page stays shareable.

No JS? Fill the form by hand. The geolocation button needs JavaScript.